sat.trackr.live / text

‹ back to catalog

STARLINK-36514

NORAD 67641 · 2026-020AA

PAYLOAD ACTIVE UNKNOWN

§ Identity

Operator
Country
US
Launch date
2026-01-30
Launch site
AFETR
Launch vehicle
Mass (kg)
RCS (m²)

Purposes: comms

External: N2YO · Heavens-Above · Gunter

§ Orbital elements

Epoch: 2026-09-19T21:58:26.414400Z

Period
94.26 min
Inclination
42.9995°
Eccentricity
0.0000999
Mean motion
15.27612063 rev/d
Perigee alt
482.3 km
Apogee alt
483.6 km
Semi-major
6,861.1 km
B*
4.0415e-4
RAAN
123.2575°
Arg perigee
264.6403°
Mean anomaly
95.4335°
Rev number
3,581

§ Raw data

STARLINK-365141 67641U 26020AA  26262.91558350  .00010887  00000+0  40415-3 0  99982 67641  42.9995 123.2575 0000999 264.6403  95.4335 15.27612063 35810

JSON: /api/v1/satellites/67641 · /tle

For live sub-satellite position, see the globe view (requires WebGL).

§ Visibility from observer

Set your observer location to see the next 7 days of passes ≥ 10°. The values pass through the URL so the page stays shareable.

No JS? Fill the form by hand. The geolocation button needs JavaScript.